NOAA 1 [-] 1 04793U 70106A 12135.94658891 -.00000031 00000-0 10000-3 0 2766 2 04793 102.0682 161.7179 0031921 216.3606 143.5296 12.53951384896123 NOAA 2 [-] 1 06235U 72082A 12135.93657222 -.00000027 00000-0 10000-3 0 3687 2 06235 101.4223 126.2456 0003981 7.8513 352.2623 12.53024645810578 NOAA 3 [-] 1 06920U 73086A 12135.93903079 -.00000030 00000-0 10000-3 0 2590 2 06920 101.7089 132.9049 0006474 330.1162 29.9533 12.40325129744038 NOAA 4 [-] 1 07529U 74089A 12135.98837618 -.00000027 00000-0 10000-3 0 2697 2 07529 101.4180 134.6452 0009223 40.0165 320.1585 12.53071290715161 NOAA 5 [-] 1 09057U 76077A 12135.94463550 -.00000030 00000-0 10000-3 0 1480 2 09057 101.7830 160.0685 0009440 165.1645 194.9696 12.37781544617970 TIROS N [P] 1 11060U 78096A 12137.03867013 .00000120 00000-0 81455-4 0 586 2 11060 99.0433 135.4131 0009940 228.7745 131.2573 14.17670136949676 NOAA 6 [P] 1 11416U 79057A 12135.98384623 .00000238 00000-0 10386-3 0 979 2 11416 98.4172 133.1953 0010689 358.3696 1.7452 14.32291141713823 NOAA 7 [-] 1 12553U 81059A 12135.92268017 .00000036 00000-0 39906-4 0 2056 2 12553 98.7969 84.3294 0011760 149.8784 210.3066 14.16884930596015 NOAA 8 [-] 1 13923U 83022A 12135.96602727 .00000071 00000-0 45875-4 0 1155 2 13923 98.4728 153.8403 0014465 229.2112 130.7816 14.27878759516502 NOAA 9 [P] 1 15427U 84123A 12135.43845301 .00000297 00000-0 17319-3 0 9944 2 15427 98.5652 98.4008 0014098 241.2757 118.6982 14.15491201415222 NOAA 10 [-] 1 16969U 86073A 12135.86759624 .00000059 00000-0 41719-4 0 9242 2 16969 98.5853 165.5095 0012335 337.2379 22.8252 14.27549081335115 NOAA 11 [-] 1 19531U 88089A 12135.69769155 .00000087 00000-0 67251-4 0 9217 2 19531 98.7305 221.5587 0010923 323.6540 36.3900 14.14967245219771 NOAA 12 [-] 1 21263U 91032A 12135.98756148 .00000062 00000-0 44935-4 0 4227 2 21263 98.7311 157.8067 0013084 300.4443 59.5445 14.25493593 91820 NOAA 13 [-] 1 22739U 93050A 12135.77554597 .00000044 00000-0 47102-4 0 9302 2 22739 98.7788 214.7101 0010485 69.6803 290.5491 14.12338178966940 NOAA 14 [-] 1 23455U 94089A 12135.92860581 .00000054 00000-0 51670-4 0 9026 2 23455 98.8274 219.8438 0010280 56.7880 303.4273 14.13896356896099 NOAA 15 [P] 1 25338U 98030A 12135.70627779 .00000285 00000-0 14042-3 0 2619 2 25338 98.6879 122.9337 0010058 201.4428 158.6316 14.25067003728085 NOAA 16 [P] 1 26536U 00055A 12135.75028349 .00000157 00000-0 10954-3 0 7467 2 26536 99.0973 177.3517 0010660 173.1538 186.9800 14.12735354600310 NOAA 17 [P] 1 27453U 02032A 12135.65706116 .00000138 00000-0 77163-4 0 7046 2 27453 98.3389 164.3849 0010704 254.1040 105.8951 14.24429760513980 NOAA 18 [+] 1 28654U 05018A 12135.68210212 -.00000017 00000-0 15721-4 0 1792 2 28654 99.0436 93.4960 0013349 248.5724 111.4012 14.11646351359831 NOAA 19 [+] 1 33591U 09005A 12135.75341258 .00000378 00000-0 23318-3 0 3714 2 33591 98.8622 75.9594 0014940 113.8968 246.3772 14.11335097168292 NPP [+] 1 37849U 11061A 12137.16954259 -.00000010 00000-0 16036-4 0 1786 2 37849 98.7141 75.1795 0001736 96.4012 263.7371 14.19563560 28498